This demonstration page uses our WeatherBlox Daily Observations layout. Learn more.

Left ArrowRight Arrow

Hourly Observations for April 7, 2018

Temp ( °F °C ) Dew Point ( °F °C ) Humidity (%) Winds ( mph kmh ) Pressure ( in mb ) Visibility ( mi km ) Precip ( " mm )
12:08 am 00:08 Cloudy with Light Snow 32 0 29 -1.7 88 88 NNW 7 11 30.09 1019 3 4 0.00 0.03
12:14 am 00:14 Cloudy with Light Snow 32 0 29 -1.7 88 88 NW 7 11 30.09 1019 2 2 0.00 0.03
12:21 am 00:21 Cloudy with Light Snow 32 0 29 -1.7 88 88 NW 9 15 30.09 1019 2 3 0.00 0.03
12:34 am 00:34 Cloudy with Light Snow 31 -0.6 29 -1.7 92 92 NW 7 11 30.09 1019 2 3 0.00 0.03
12:46 am 00:46 Cloudy with Light Snow 32 0 29 -1.7 88 88 NW 7 11 30.09 1019 3 4 0.00 0.03
12:50 am 00:50 Cloudy with Light Snow 32 0 28 -2 87 87 NNW 8 13 30.09 1019 3 5 0.00 0.03
12:53 am 00:53 Cloudy with Light Snow 32 0 26 -3.3 79 79 NNW 9 15 30.05 1018 3 5 0.00 0.03
12:56 am 00:56 Cloudy with Light Snow 32 0 29 -1.7 88 88 N 12 19 30.12 1020 2 3 0.00 0.03
1:01 am 01:01 Cloudy with Light Snow 31 -0.6 28 -2.2 89 89 NNW 13 20 30.12 1020 1 2 0.00 0.03
1:13 am 01:13 Cloudy with Light Snow 30 -1.1 27 -2.8 88 88 N 12 19 30.12 1020 1 2 0.00 0.03
1:34 am 01:34 Cloudy with Light Snow 29 -1.7 25 -3.9 85 85 N 10 17 30.12 1020 1 2 0.00 0.03
1:40 am 01:40 Cloudy with Light Snow 29 -1.7 26 -3.3 89 89 N 13 20 30.12 1020 2 3 0.00 0.03
1:43 am 01:43 Cloudy with Light Snow 29 -1.7 25 -3.9 85 85 N 12 19 30.12 1020 2 3 0.00 0.03
1:53 am 01:53 Cloudy with Light Snow 29 -1.7 25 -3.9 85 85 N 7 11 30.07 1018 3 4 0.00 0.03
2:02 am 02:02 Cloudy with Light Snow 29 -1.7 25 -3.9 85 85 NNE 9 15 30.12 1020 4 6 0.00 0.03
2:53 am 02:53 Cloudy with Light Snow 29 -1.7 25 -3.9 85 85 NNE 5 7 30.06 1018 5 8 0.00 0.03
3:53 am 03:53 Cloudy with Light Snow 30 -1.1 25 -3.9 82 82 N 6 9 30.06 1018 6 10 0.00 0.03
4:53 am 04:53 Cloudy 31 -0.6 20 -6.7 64 64 N 10 17 30.08 1019 10 16 0.00 0.03
5:53 am 05:53 Cloudy 31 -0.6 20 -6.7 64 64 N 7 11 30.09 1019 10 16 0.00 0.00
6:53 am 06:53 Cloudy 30 -1.1 20 -6.7 66 66 N 8 13 30.10 1019 10 16 0.00 0.00
7:53 am 07:53 Cloudy 30 -1.1 20 -6.7 66 66 N 9 15 30.12 1020 10 16 0.00 0.00
8:53 am 08:53 Cloudy 30 -1.1 18 -7.8 61 61 NNE 8 13 30.13 1020 10 16 0.00 0.00
9:53 am 09:53 Sunny 31 -0.6 16 -8.9 54 54 NNE 8 13 30.14 1021 10 16 0.00 0.00
10:53 am 10:53 Sunny 32 0 16 -8.9 52 52 NNE 7 11 30.14 1021 10 16 0.00 0.00
11:53 am 11:53 Sunny 34 1.1 16 -8.9 48 48 NE 5 7 30.14 1021 10 16 0.00 0.00
12:53 pm 12:53 Sunny 36 2.2 14 -10 40 40 VRB 6 9 30.11 1020 10 16 0.00 0.00
1:53 pm 13:53 Mostly Sunny 38 3.3 16 -8.9 41 41 Calm 30.10 1019 10 16 0.00 0.00
2:53 pm 14:53 Mostly Sunny 41 5 20 -6.7 43 43 N 10 17 30.09 1019 10 16 0.00 0.00
3:53 pm 15:53 Mostly Cloudy 42 5.6 22 -5.6 45 45 NW 8 13 30.08 1019 10 16 0.00 0.00
4:53 pm 16:53 Mostly Cloudy 42 5.6 21 -6.1 43 43 VRB 5 7 30.07 1018 10 16 0.00 0.00
5:53 pm 17:53 Partly Cloudy 42 5.6 20 -6.7 41 41 NNE 9 15 30.06 1018 10 16 0.00 0.00
6:53 pm 18:53 Mostly Sunny 41 5 18 -7.8 39 39 VRB 5 7 30.05 1018 10 16 0.00 0.00
7:53 pm 19:53 Mostly Sunny 38 3.3 18 -7.8 44 44 NW 7 11 30.05 1018 10 16 0.00 0.00
8:53 pm 20:53 Mostly Clear 36 2.2 20 -6.7 52 52 WNW 7 11 30.06 1018 10 16 0.00 0.00
9:53 pm 21:53 Clear 34 1.1 21 -6.1 59 59 WNW 3 6 30.08 1019 10 16 0.00 0.00
10:53 pm 22:53 Clear 32 0 21 -6.1 64 64 NNW 6 9 30.08 1019 10 16 0.00 0.00
11:53 pm 23:53 Clear 33 0.6 21 -6.1 61 61 NNW 6 9 30.08 1019 10 16 0.00 0.00

Powered by AerisWeather